Time,TemperatureF,DewpointF,PressureIn,WindDirection,WindDirectionDegrees,WindSpeedMPH,WindSpeedGustMPH,Humidity,HourlyPrecipIn,Conditions,Clouds,dailyrainin,SoftwareType,DateUTC
2013-02-23 00:00:00,34.6,33.6,30.17,North,5,0.0,1.0,96,0.00,,---,0.31,VWS V14.01,2013-02-23 05:00:00,
2013-02-23 00:04:00,34.6,33.6,30.17,North,5,0.0,1.0,96,0.00,,---,0.00,VWS V14.01,2013-02-23 05:04:00,
2013-02-23 00:05:00,34.6,33.6,30.17,North,5,0.0,1.0,96,0.00,,---,0.00,VWS V14.01,2013-02-23 05:05:00,
2013-02-23 00:09:00,34.6,33.6,30.16,North,5,0.0,1.0,96,0.00,,---,0.00,VWS V14.01,2013-02-23 05:09:00,
2013-02-23 00:10:00,34.6,33.6,30.16,North,5,0.0,1.0,96,0.00,,---,0.00,VWS V14.01,2013-02-23 05:10:00,
2013-02-23 00:14:00,34.6,33.6,30.15,North,9,1.0,3.0,96,0.00,,---,0.00,VWS V14.01,2013-02-23 05:14:00,
2013-02-23 00:15:00,34.6,33.6,30.15,North,9,1.0,3.0,96,0.00,,---,0.00,VWS V14.01,2013-02-23 05:15:00,
2013-02-23 00:19:00,34.6,33.6,30.15,North,9,1.0,4.0,96,0.00,,---,0.00,VWS V14.01,2013-02-23 05:19:00,
2013-02-23 00:20:00,34.6,33.6,30.15,North,9,1.0,4.0,96,0.00,,---,0.00,VWS V14.01,2013-02-23 05:20:00,
2013-02-23 00:25:00,34.5,33.5,30.15,North,9,1.0,2.0,96,0.00,,---,0.00,VWS V14.01,2013-02-23 05:25:00,
2013-02-23 00:29:00,34.4,33.4,30.16,North,9,0.0,2.0,96,0.00,,---,0.00,VWS V14.01,2013-02-23 05:29:00,
2013-02-23 00:30:00,34.4,33.4,30.16,North,9,0.0,2.0,96,0.00,,---,0.00,VWS V14.01,2013-02-23 05:30:00,
2013-02-23 00:34:00,34.5,33.5,30.16,North,9,1.0,2.0,96,0.00,,---,0.00,VWS V14.01,2013-02-23 05:34:00,
2013-02-23 00:35:00,34.5,33.5,30.16,North,9,1.0,2.0,96,0.00,,---,0.00,VWS V14.01,2013-02-23 05:35:00,
2013-02-23 00:40:00,34.4,33.4,30.17,North,9,0.0,0.0,96,0.00,,---,0.00,VWS V14.01,2013-02-23 05:40:00,
2013-02-23 00:45:00,34.5,33.5,30.16,North,9,0.0,3.0,96,0.00,,---,0.00,VWS V14.01,2013-02-23 05:45:00,
2013-02-23 00:49:00,34.5,33.5,30.16,North,9,0.0,2.0,96,0.00,,---,0.00,VWS V14.01,2013-02-23 05:49:00,
2013-02-23 00:50:00,34.5,33.5,30.16,North,9,0.0,2.0,96,0.00,,---,0.00,VWS V14.01,2013-02-23 05:50:00,
2013-02-23 00:54:00,34.5,33.5,30.17,North,9,2.0,2.0,96,0.00,,---,0.00,VWS V14.01,2013-02-23 05:54:00,
2013-02-23 00:55:00,34.5,33.5,30.17,North,9,2.0,2.0,96,0.00,,---,0.00,VWS V14.01,2013-02-23 05:55:00,
2013-02-23 01:00:00,34.5,33.5,30.17,North,9,0.0,3.0,96,0.00,,---,0.00,VWS V14.01,2013-02-23 06:00:00,
2013-02-23 01:04:00,34.5,33.5,30.18,North,9,0.0,2.0,96,0.00,,---,0.00,VWS V14.01,2013-02-23 06:04:00,
2013-02-23 01:05:00,34.5,33.5,30.18,North,9,0.0,2.0,96,0.00,,---,0.00,VWS V14.01,2013-02-23 06:05:00,
2013-02-23 01:09:00,34.5,33.5,30.19,North,9,1.0,2.0,96,0.00,,---,0.00,VWS V14.01,2013-02-23 06:09:00,
2013-02-23 01:10:00,34.5,33.5,30.19,North,9,1.0,2.0,96,0.00,,---,0.00,VWS V14.01,2013-02-23 06:10:00,
2013-02-23 01:15:00,34.5,33.5,30.19,North,9,0.0,1.0,96,0.00,,---,0.00,VWS V14.01,2013-02-23 06:15:00,
2013-02-23 01:20:00,34.6,33.6,30.17,North,9,0.0,4.0,96,0.00,,---,0.00,VWS V14.01,2013-02-23 06:20:00,
2013-02-23 01:25:00,34.6,33.6,30.18,North,9,1.0,2.0,96,0.00,,---,0.00,VWS V14.01,2013-02-23 06:25:00,
2013-02-23 01:29:00,34.6,33.6,30.17,North,9,1.0,3.0,96,0.00,,---,0.00,VWS V14.01,2013-02-23 06:29:00,
2013-02-23 01:30:00,34.6,33.6,30.17,North,9,1.0,3.0,96,0.00,,---,0.00,VWS V14.01,2013-02-23 06:30:00,
2013-02-23 01:34:00,34.6,33.6,30.15,NNE,16,3.0,3.0,96,0.00,,---,0.00,VWS V14.01,2013-02-23 06:34:00,
2013-02-23 01:35:00,34.6,33.6,30.15,NNE,16,3.0,3.0,96,0.00,,---,0.00,VWS V14.01,2013-02-23 06:35:00,
2013-02-23 01:39:00,34.6,33.6,30.15,NNE,16,2.0,3.0,96,0.00,,---,0.00,VWS V14.01,2013-02-23 06:39:00,
2013-02-23 01:40:00,34.6,33.6,30.15,NNE,16,2.0,3.0,96,0.00,,---,0.00,VWS V14.01,2013-02-23 06:40:00,
2013-02-23 01:44:00,34.6,33.6,30.15,North,9,2.0,4.0,96,0.00,,---,0.00,VWS V14.01,2013-02-23 06:44:00,
2013-02-23 01:45:00,34.6,33.6,30.15,North,9,2.0,4.0,96,0.00,,---,0.00,VWS V14.01,2013-02-23 06:45:00,
2013-02-23 01:49:00,34.6,33.6,30.14,NNE,13,4.0,5.0,96,0.00,,---,0.00,VWS V14.01,2013-02-23 06:49:00,
2013-02-23 01:50:00,34.6,33.6,30.14,NNE,13,4.0,5.0,96,0.00,,---,0.00,VWS V14.01,2013-02-23 06:50:00,
2013-02-23 01:55:00,34.6,33.6,30.11,NE,47,5.0,6.0,96,0.00,,---,0.00,VWS V14.01,2013-02-23 06:55:00,
2013-02-23 01:59:00,34.5,33.5,30.12,South,186,2.0,6.0,96,0.00,,---,0.00,VWS V14.01,2013-02-23 06:59:00,
2013-02-23 02:00:00,34.5,33.5,30.12,South,186,2.0,6.0,96,0.00,,---,0.00,VWS V14.01,2013-02-23 07:00:00,
2013-02-23 02:04:00,34.6,33.6,30.14,South,191,0.0,4.0,96,0.00,,---,0.00,VWS V14.01,2013-02-23 07:04:00,
2013-02-23 02:05:00,34.6,33.6,30.14,South,191,0.0,4.0,96,0.00,,---,0.00,VWS V14.01,2013-02-23 07:05:00,
2013-02-23 02:09:00,34.6,33.6,30.15,South,191,2.0,2.0,96,0.00,,---,0.00,VWS V14.01,2013-02-23 07:09:00,
2013-02-23 02:10:00,34.6,33.6,30.07,NE,52,2.0,3.0,96,0.01,,---,0.01,VWS V14.01,2013-02-23 07:10:00,
2013-02-23 02:15:00,34.6,33.6,30.15,SW,227,0.0,3.0,96,0.00,,---,0.00,VWS V14.01,2013-02-23 07:15:00,
2013-02-23 02:19:00,34.7,33.7,30.14,SW,227,0.0,2.0,96,0.00,,---,0.00,VWS V14.01,2013-02-23 07:19:00,
2013-02-23 02:20:00,34.7,33.7,30.14,SW,227,0.0,2.0,96,0.00,,---,0.00,VWS V14.01,2013-02-23 07:20:00,
2013-02-23 02:24:00,34.7,33.7,30.12,SW,227,0.0,1.0,96,0.00,,---,0.00,VWS V14.01,2013-02-23 07:24:00,
2013-02-23 02:25:00,34.7,33.7,30.12,SW,227,0.0,1.0,96,0.00,,---,0.00,VWS V14.01,2013-02-23 07:25:00,
2013-02-23 02:30:00,34.6,33.6,30.09,NNE,18,1.0,6.0,96,0.00,,---,0.00,VWS V14.01,2013-02-23 07:30:00,
2013-02-23 02:34:00,34.6,33.6,30.09,East,90,2.0,4.0,96,0.00,,---,0.00,VWS V14.01,2013-02-23 07:34:00,
2013-02-23 02:35:00,34.6,33.6,30.09,East,90,2.0,4.0,96,0.00,,---,0.00,VWS V14.01,2013-02-23 07:35:00,
2013-02-23 02:39:00,34.6,33.6,30.09,SE,134,0.0,2.0,96,0.00,,---,0.00,VWS V14.01,2013-02-23 07:39:00,
2013-02-23 02:40:00,34.6,33.6,30.09,SE,134,0.0,2.0,96,0.00,,---,0.00,VWS V14.01,2013-02-23 07:40:00,
2013-02-23 02:44:00,34.6,33.6,30.08,NNE,26,1.0,2.0,96,0.00,,---,0.00,VWS V14.01,2013-02-23 07:44:00,
2013-02-23 02:45:00,34.6,33.6,30.08,NNE,26,1.0,2.0,96,0.00,,---,0.00,VWS V14.01,2013-02-23 07:45:00,
2013-02-23 02:49:00,34.6,33.6,30.08,East,85,2.0,3.0,96,0.01,,---,0.01,VWS V14.01,2013-02-23 07:49:00,
2013-02-23 02:50:00,34.6,33.6,30.08,East,85,2.0,3.0,96,0.01,,---,0.01,VWS V14.01,2013-02-23 07:50:00,
2013-02-23 02:54:00,34.6,33.6,30.08,North,11,3.0,5.0,96,0.01,,---,0.01,VWS V14.01,2013-02-23 07:54:00,
2013-02-23 02:55:00,34.6,33.6,30.08,North,11,3.0,5.0,96,0.01,,---,0.01,VWS V14.01,2013-02-23 07:55:00,
2013-02-23 03:00:00,34.5,33.5,30.08,North,5,0.0,5.0,96,0.01,,---,0.01,VWS V14.01,2013-02-23 08:00:00,
2013-02-23 03:04:00,34.5,33.5,30.07,North,10,0.0,5.0,96,0.01,,---,0.01,VWS V14.01,2013-02-23 08:04:00,
2013-02-23 03:05:00,34.5,33.5,30.07,North,10,0.0,5.0,96,0.01,,---,0.01,VWS V14.01,2013-02-23 08:05:00,
2013-02-23 03:09:00,34.6,33.6,30.07,NE,52,2.0,3.0,96,0.01,,---,0.01,VWS V14.01,2013-02-23 08:09:00,
2013-02-23 03:10:00,34.6,33.6,30.07,NE,52,2.0,3.0,96,0.01,,---,0.01,VWS V14.01,2013-02-23 08:10:00,
2013-02-23 03:14:00,34.6,33.6,30.07,NE,35,0.0,6.0,96,0.01,,---,0.01,VWS V14.01,2013-02-23 08:14:00,
2013-02-23 03:15:00,34.6,33.6,30.07,NE,35,0.0,6.0,96,0.01,,---,0.01,VWS V14.01,2013-02-23 08:15:00,
2013-02-23 03:20:00,34.5,33.5,30.06,NNE,32,4.0,5.0,96,0.01,,---,0.01,VWS V14.01,2013-02-23 08:20:00,
2013-02-23 03:24:00,34.5,33.5,30.03,North,5,5.0,7.0,96,0.01,,---,0.01,VWS V14.01,2013-02-23 08:24:00,
2013-02-23 03:25:00,34.5,33.5,30.03,North,5,5.0,7.0,96,0.01,,---,0.01,VWS V14.01,2013-02-23 08:25:00,
2013-02-23 03:29:00,34.5,33.5,30.07,SE,131,1.0,6.0,96,0.01,,---,0.01,VWS V14.01,2013-02-23 08:29:00,
2013-02-23 03:30:00,34.5,33.5,30.07,SE,131,1.0,6.0,96,0.01,,---,0.01,VWS V14.01,2013-02-23 08:30:00,
2013-02-23 03:34:00,34.6,33.6,30.10,South,181,1.0,4.0,96,0.01,,---,0.01,VWS V14.01,2013-02-23 08:34:00,
2013-02-23 03:35:00,34.6,33.6,30.10,South,181,1.0,4.0,96,0.01,,---,0.01,VWS V14.01,2013-02-23 08:35:00,
2013-02-23 03:40:00,34.7,33.7,30.10,SSW,192,0.0,3.0,96,0.01,,---,0.01,VWS V14.01,2013-02-23 08:40:00,
2013-02-23 03:44:00,34.7,33.7,30.08,SSW,192,0.0,2.0,96,0.01,,---,0.01,VWS V14.01,2013-02-23 08:44:00,
2013-02-23 03:45:00,34.7,33.7,30.08,SSW,192,0.0,2.0,96,0.01,,---,0.01,VWS V14.01,2013-02-23 08:45:00,
2013-02-23 03:50:00,34.7,33.7,30.08,SSW,192,1.0,2.0,96,0.01,,---,0.01,VWS V14.01,2013-02-23 08:50:00,
2013-02-23 03:54:00,34.8,33.8,30.08,SSW,192,0.0,3.0,96,0.00,,---,0.01,VWS V14.01,2013-02-23 08:54:00,
2013-02-23 03:55:00,34.8,33.8,30.08,SSW,192,0.0,3.0,96,0.00,,---,0.01,VWS V14.01,2013-02-23 08:55:00,
2013-02-23 03:59:00,34.8,33.8,30.08,SSW,192,2.0,2.0,96,0.00,,---,0.01,VWS V14.01,2013-02-23 08:59:00,
2013-02-23 04:00:00,34.8,33.8,30.08,SSW,192,2.0,2.0,96,0.00,,---,0.01,VWS V14.01,2013-02-23 09:00:00,
2013-02-23 04:04:00,34.8,33.8,30.08,SSW,192,0.0,3.0,96,0.00,,---,0.01,VWS V14.01,2013-02-23 09:04:00,
2013-02-23 04:05:00,34.8,33.8,30.08,SSW,192,0.0,3.0,96,0.00,,---,0.01,VWS V14.01,2013-02-23 09:05:00,
2013-02-23 04:09:00,34.8,33.8,30.06,ENE,69,1.0,4.0,96,0.00,,---,0.01,VWS V14.01,2013-02-23 09:09:00,
2013-02-23 04:10:00,34.8,33.8,30.06,ENE,69,1.0,4.0,96,0.00,,---,0.01,VWS V14.01,2013-02-23 09:10:00,
2013-02-23 04:15:00,34.9,33.9,30.08,ENE,65,3.0,3.0,96,0.00,,---,0.01,VWS V14.01,2013-02-23 09:15:00,
2013-02-23 04:19:00,34.8,33.8,30.09,ENE,65,0.0,3.0,96,0.00,,---,0.01,VWS V14.01,2013-02-23 09:19:00,
2013-02-23 04:20:00,34.8,33.8,30.09,ENE,65,0.0,3.0,96,0.00,,---,0.01,VWS V14.01,2013-02-23 09:20:00,
2013-02-23 04:25:00,34.8,33.8,30.09,ENE,65,0.0,2.0,96,0.00,,---,0.01,VWS V14.01,2013-02-23 09:25:00,
2013-02-23 04:29:00,34.9,33.9,30.09,ENE,65,0.0,2.0,96,0.00,,---,0.01,VWS V14.01,2013-02-23 09:29:00,
2013-02-23 04:30:00,34.9,33.9,30.09,ENE,65,0.0,2.0,96,0.00,,---,0.01,VWS V14.01,2013-02-23 09:30:00,
2013-02-23 04:34:00,34.9,33.9,30.09,ENE,65,0.0,1.0,96,0.00,,---,0.01,VWS V14.01,2013-02-23 09:34:00,
2013-02-23 04:35:00,34.9,33.9,30.09,ENE,65,0.0,1.0,96,0.00,,---,0.01,VWS V14.01,2013-02-23 09:35:00,
2013-02-23 04:39:00,34.9,33.9,30.08,ENE,65,0.0,0.0,96,0.00,,---,0.01,VWS V14.01,2013-02-23 09:39:00,
2013-02-23 04:40:00,34.9,33.9,30.08,ENE,65,0.0,0.0,96,0.00,,---,0.01,VWS V14.01,2013-02-23 09:40:00,
2013-02-23 04:44:00,34.9,33.9,30.07,ENE,65,0.0,1.0,96,0.00,,---,0.01,VWS V14.01,2013-02-23 09:44:00,
2013-02-23 04:45:00,34.9,33.9,30.07,ENE,65,0.0,1.0,96,0.00,,---,0.01,VWS V14.01,2013-02-23 09:45:00,
2013-02-23 04:49:00,34.9,33.9,30.07,ENE,65,0.0,0.0,96,0.00,,---,0.01,VWS V14.01,2013-02-23 09:49:00,
2013-02-23 04:50:00,34.9,33.9,30.07,ENE,65,0.0,0.0,96,0.00,,---,0.01,VWS V14.01,2013-02-23 09:50:00,
2013-02-23 04:55:00,34.9,33.9,30.07,ENE,65,0.0,0.0,96,0.00,,---,0.01,VWS V14.01,2013-02-23 09:55:00,
2013-02-23 04:59:00,34.9,33.9,30.08,ENE,65,0.0,1.0,96,0.00,,---,0.01,VWS V14.01,2013-02-23 09:59:00,
2013-02-23 05:00:00,34.9,33.9,30.08,ENE,65,0.0,1.0,96,0.00,,---,0.01,VWS V14.01,2013-02-23 10:00:00,
2013-02-23 05:04:00,34.9,33.9,30.08,ENE,65,0.0,1.0,96,0.00,,---,0.01,VWS V14.01,2013-02-23 10:04:00,
2013-02-23 05:05:00,34.9,33.9,30.08,ENE,65,0.0,1.0,96,0.00,,---,0.01,VWS V14.01,2013-02-23 10:05:00,
2013-02-23 05:09:00,35.0,34.0,30.09,ENE,65,0.0,0.0,96,0.00,,---,0.01,VWS V14.01,2013-02-23 10:09:00,
2013-02-23 05:10:00,35.0,34.0,30.09,ENE,65,0.0,0.0,96,0.00,,---,0.01,VWS V14.01,2013-02-23 10:10:00,
2013-02-23 05:15:00,35.0,34.0,30.10,ENE,65,0.0,0.0,96,0.01,,---,0.02,VWS V14.01,2013-02-23 10:15:00,
2013-02-23 05:19:00,35.0,34.0,30.10,ENE,65,0.0,0.0,96,0.01,,---,0.02,VWS V14.01,2013-02-23 10:19:00,
2013-02-23 05:20:00,35.0,34.0,30.10,ENE,65,0.0,0.0,96,0.01,,---,0.02,VWS V14.01,2013-02-23 10:20:00,
2013-02-23 05:24:00,35.0,34.0,30.09,ENE,65,1.0,2.0,96,0.02,,---,0.03,VWS V14.01,2013-02-23 10:24:00,
2013-02-23 05:25:00,35.0,34.0,30.09,ENE,65,1.0,2.0,96,0.02,,---,0.03,VWS V14.01,2013-02-23 10:25:00,
2013-02-23 05:29:00,35.1,34.1,30.09,ENE,65,0.0,1.0,96,0.03,,---,0.04,VWS V14.01,2013-02-23 10:29:00,
2013-02-23 05:30:00,35.1,34.1,30.09,ENE,65,0.0,1.0,96,0.03,,---,0.04,VWS V14.01,2013-02-23 10:30:00,
2013-02-23 05:34:00,35.1,34.1,30.09,ENE,65,0.0,0.0,96,0.04,,---,0.05,VWS V14.01,2013-02-23 10:34:00,
2013-02-23 05:35:00,35.1,34.1,30.09,ENE,65,0.0,0.0,96,0.04,,---,0.05,VWS V14.01,2013-02-23 10:35:00,
2013-02-23 05:40:00,35.1,34.1,30.09,ENE,65,0.0,1.0,96,0.04,,---,0.05,VWS V14.01,2013-02-23 10:40:00,
2013-02-23 05:44:00,35.1,34.1,30.08,ENE,65,0.0,0.0,96,0.05,,---,0.06,VWS V14.01,2013-02-23 10:44:00,
2013-02-23 05:45:00,35.1,34.1,30.08,ENE,65,0.0,0.0,96,0.05,,---,0.06,VWS V14.01,2013-02-23 10:45:00,
2013-02-23 05:49:00,35.0,34.0,30.08,ENE,65,0.0,1.0,96,0.05,,---,0.06,VWS V14.01,2013-02-23 10:49:00,
2013-02-23 05:50:00,35.0,34.0,30.08,ENE,65,0.0,1.0,96,0.05,,---,0.06,VWS V14.01,2013-02-23 10:50:00,
2013-02-23 05:54:00,35.0,34.0,30.07,ENE,65,1.0,2.0,96,0.06,,---,0.07,VWS V14.01,2013-02-23 10:54:00,
2013-02-23 05:55:00,35.0,34.0,30.07,ENE,65,1.0,2.0,96,0.06,,---,0.07,VWS V14.01,2013-02-23 10:55:00,
2013-02-23 05:59:00,35.0,34.0,30.07,NE,56,0.0,3.0,96,0.07,,---,0.08,VWS V14.01,2013-02-23 10:59:00,
2013-02-23 06:00:00,35.0,34.0,30.07,NE,56,0.0,3.0,96,0.07,,---,0.08,VWS V14.01,2013-02-23 11:00:00,
2013-02-23 06:04:00,35.0,34.0,30.06,NE,56,0.0,1.0,96,0.07,,---,0.08,VWS V14.01,2013-02-23 11:04:00,
2013-02-23 06:05:00,35.0,34.0,30.06,NE,56,0.0,1.0,96,0.07,,---,0.08,VWS V14.01,2013-02-23 11:05:00,
2013-02-23 06:09:00,35.1,34.1,30.06,NE,56,0.0,1.0,96,0.08,,---,0.09,VWS V14.01,2013-02-23 11:09:00,
2013-02-23 06:10:00,35.1,34.1,30.06,NE,56,0.0,1.0,96,0.08,,---,0.09,VWS V14.01,2013-02-23 11:10:00,
2013-02-23 06:14:00,35.0,34.0,30.05,NE,56,0.0,1.0,96,0.08,,---,0.09,VWS V14.01,2013-02-23 11:14:00,
2013-02-23 06:15:00,35.0,34.0,30.05,NE,56,0.0,1.0,96,0.08,,---,0.09,VWS V14.01,2013-02-23 11:15:00,
2013-02-23 06:19:00,35.1,34.1,30.05,NE,56,0.0,1.0,96,0.08,,---,0.10,VWS V14.01,2013-02-23 11:19:00,
2013-02-23 06:20:00,35.1,34.1,30.05,NE,56,0.0,1.0,96,0.08,,---,0.10,VWS V14.01,2013-02-23 11:20:00,
2013-02-23 06:24:00,35.1,34.1,30.04,NE,56,1.0,1.0,96,0.08,,---,0.10,VWS V14.01,2013-02-23 11:24:00,
2013-02-23 06:25:00,35.1,34.1,30.04,NE,56,1.0,1.0,96,0.08,,---,0.10,VWS V14.01,2013-02-23 11:25:00,
2013-02-23 06:29:00,35.1,34.1,30.04,NE,56,0.0,1.0,96,0.08,,---,0.11,VWS V14.01,2013-02-23 11:29:00,
2013-02-23 06:30:00,35.1,34.1,30.04,NE,56,0.0,1.0,96,0.08,,---,0.11,VWS V14.01,2013-02-23 11:30:00,
2013-02-23 06:34:00,35.0,34.0,30.03,NE,56,1.0,3.0,96,0.07,,---,0.11,VWS V14.01,2013-02-23 11:34:00,
2013-02-23 06:35:00,35.0,34.0,30.03,NE,56,1.0,3.0,96,0.07,,---,0.11,VWS V14.01,2013-02-23 11:35:00,
2013-02-23 06:39:00,35.0,34.0,30.01,NE,56,1.0,3.0,96,0.06,,---,0.11,VWS V14.01,2013-02-23 11:39:00,
2013-02-23 06:40:00,35.0,34.0,30.01,NE,56,1.0,3.0,96,0.06,,---,0.11,VWS V14.01,2013-02-23 11:40:00,
2013-02-23 06:44:00,35.0,34.0,30.01,NE,56,0.0,3.0,96,0.06,,---,0.11,VWS V14.01,2013-02-23 11:44:00,
2013-02-23 06:45:00,35.0,34.0,30.01,NE,56,0.0,3.0,96,0.06,,---,0.11,VWS V14.01,2013-02-23 11:45:00,
2013-02-23 06:49:00,35.0,34.0,30.01,NE,54,1.0,5.0,96,0.05,,---,0.11,VWS V14.01,2013-02-23 11:49:00,
2013-02-23 06:50:00,35.0,34.0,30.01,NE,54,1.0,5.0,96,0.05,,---,0.11,VWS V14.01,2013-02-23 11:50:00,
2013-02-23 06:55:00,35.0,34.0,30.02,NNE,31,0.0,6.0,96,0.05,,---,0.11,VWS V14.01,2013-02-23 11:55:00,
2013-02-23 06:59:00,35.0,34.0,30.02,NNE,30,0.0,3.0,96,0.04,,---,0.11,VWS V14.01,2013-02-23 11:59:00,
2013-02-23 07:00:00,35.0,34.0,30.02,NNE,30,0.0,3.0,96,0.04,,---,0.11,VWS V14.01,2013-02-23 12:00:00,
2013-02-23 07:04:00,35.0,34.0,30.02,NNE,26,0.0,4.0,96,0.03,,---,0.11,VWS V14.01,2013-02-23 12:04:00,
2013-02-23 07:05:00,35.0,34.0,30.02,NNE,26,0.0,4.0,96,0.03,,---,0.11,VWS V14.01,2013-02-23 12:05:00,
2013-02-23 07:09:00,35.0,34.0,30.02,NNE,26,0.0,1.0,96,0.03,,---,0.11,VWS V14.01,2013-02-23 12:09:00,
2013-02-23 07:10:00,35.0,34.0,30.02,NNE,26,0.0,1.0,96,0.03,,---,0.11,VWS V14.01,2013-02-23 12:10:00,
2013-02-23 07:14:00,35.0,34.0,30.02,NNE,26,2.0,2.0,96,0.02,,---,0.11,VWS V14.01,2013-02-23 12:14:00,
2013-02-23 07:15:00,35.0,34.0,30.02,NNE,26,2.0,2.0,96,0.02,,---,0.11,VWS V14.01,2013-02-23 12:15:00,
2013-02-23 07:19:00,35.0,34.0,30.02,NNE,26,0.0,2.0,96,0.03,,---,0.12,VWS V14.01,2013-02-23 12:19:00,
2013-02-23 07:20:00,35.0,34.0,30.02,NNE,26,0.0,2.0,96,0.03,,---,0.12,VWS V14.01,2013-02-23 12:20:00,
2013-02-23 07:24:00,35.0,34.0,30.02,NNE,26,1.0,2.0,96,0.02,,---,0.12,VWS V14.01,2013-02-23 12:24:00,
2013-02-23 07:25:00,35.0,34.0,30.02,NNE,26,1.0,2.0,96,0.02,,---,0.12,VWS V14.01,2013-02-23 12:25:00,
2013-02-23 07:29:00,35.1,34.1,30.03,NNE,26,2.0,3.0,96,0.02,,---,0.12,VWS V14.01,2013-02-23 12:29:00,
2013-02-23 07:30:00,35.1,34.1,30.03,NNE,26,2.0,3.0,96,0.02,,---,0.12,VWS V14.01,2013-02-23 12:30:00,
2013-02-23 07:34:00,35.1,34.1,30.03,NNE,21,2.0,6.0,96,0.01,,---,0.12,VWS V14.01,2013-02-23 12:34:00,
2013-02-23 07:35:00,35.1,34.1,30.03,NNE,21,2.0,6.0,96,0.01,,---,0.12,VWS V14.01,2013-02-23 12:35:00,
2013-02-23 07:39:00,35.1,34.1,30.03,North,5,2.0,7.0,96,0.01,,---,0.12,VWS V14.01,2013-02-23 12:39:00,
2013-02-23 07:40:00,35.1,34.1,30.03,North,5,2.0,7.0,96,0.01,,---,0.12,VWS V14.01,2013-02-23 12:40:00,
2013-02-23 07:45:00,35.1,34.1,30.04,NE,45,2.0,4.0,96,0.02,,---,0.13,VWS V14.01,2013-02-23 12:45:00,
2013-02-23 07:49:00,35.1,34.1,30.04,NNE,16,1.0,5.0,96,0.02,,---,0.13,VWS V14.01,2013-02-23 12:49:00,
2013-02-23 07:50:00,35.1,34.1,30.04,NNE,16,1.0,5.0,96,0.02,,---,0.13,VWS V14.01,2013-02-23 12:50:00,
2013-02-23 07:54:00,35.2,34.2,30.04,NNE,16,0.0,1.0,96,0.03,,---,0.14,VWS V14.01,2013-02-23 12:54:00,
2013-02-23 07:55:00,35.2,34.2,30.04,NNE,16,0.0,1.0,96,0.03,,---,0.14,VWS V14.01,2013-02-23 12:55:00,
2013-02-23 07:59:00,35.2,34.2,30.04,NNE,16,0.0,1.0,96,0.04,,---,0.15,VWS V14.01,2013-02-23 12:59:00,
2013-02-23 08:00:00,35.2,34.2,30.04,NNE,16,0.0,1.0,96,0.04,,---,0.15,VWS V14.01,2013-02-23 13:00:00,
2013-02-23 08:04:00,35.3,34.5,30.03,ENE,72,0.0,2.0,97,0.05,,---,0.16,VWS V14.01,2013-02-23 13:04:00,
2013-02-23 08:05:00,35.3,34.5,30.03,ENE,72,0.0,2.0,97,0.05,,---,0.16,VWS V14.01,2013-02-23 13:05:00,
2013-02-23 08:10:00,35.3,34.5,30.04,ENE,60,0.0,2.0,97,0.06,,---,0.17,VWS V14.01,2013-02-23 13:10:00,
2013-02-23 08:14:00,35.3,34.5,30.03,ENE,60,0.0,1.0,97,0.07,,---,0.18,VWS V14.01,2013-02-23 13:14:00,
2013-02-23 08:15:00,35.3,34.5,30.03,ENE,60,0.0,1.0,97,0.07,,---,0.18,VWS V14.01,2013-02-23 13:15:00,
2013-02-23 08:19:00,35.4,34.6,30.04,ENE,60,1.0,1.0,97,0.08,,---,0.19,VWS V14.01,2013-02-23 13:19:00,
2013-02-23 08:20:00,35.4,34.6,30.04,ENE,60,1.0,1.0,97,0.08,,---,0.19,VWS V14.01,2013-02-23 13:20:00,
2013-02-23 08:25:00,35.4,34.6,30.03,ENE,60,0.0,1.0,97,0.08,,---,0.20,VWS V14.01,2013-02-23 13:25:00,
2013-02-23 08:29:00,35.5,34.7,30.03,ENE,60,0.0,1.0,97,0.08,,---,0.20,VWS V14.01,2013-02-23 13:29:00,
2013-02-23 08:30:00,35.5,34.7,30.03,ENE,60,0.0,1.0,97,0.08,,---,0.20,VWS V14.01,2013-02-23 13:30:00,
2013-02-23 08:34:00,35.5,34.7,30.03,ENE,60,0.0,0.0,97,0.08,,---,0.20,VWS V14.01,2013-02-23 13:34:00,
2013-02-23 08:35:00,35.5,34.7,30.03,ENE,60,0.0,0.0,97,0.08,,---,0.20,VWS V14.01,2013-02-23 13:35:00,
2013-02-23 08:39:00,35.5,34.7,30.04,ENE,60,0.0,1.0,97,0.08,,---,0.20,VWS V14.01,2013-02-23 13:39:00,
2013-02-23 08:40:00,35.5,34.7,30.04,ENE,60,0.0,1.0,97,0.08,,---,0.20,VWS V14.01,2013-02-23 13:40:00,
2013-02-23 08:45:00,35.5,34.7,30.04,ENE,60,0.0,1.0,97,0.08,,---,0.20,VWS V14.01,2013-02-23 13:45:00,
2013-02-23 08:49:00,35.6,34.6,30.03,ENE,60,0.0,1.0,96,0.07,,---,0.20,VWS V14.01,2013-02-23 13:49:00,
2013-02-23 08:50:00,35.6,34.6,30.03,ENE,60,0.0,1.0,96,0.07,,---,0.20,VWS V14.01,2013-02-23 13:50:00,
2013-02-23 08:55:00,35.6,34.6,30.03,ENE,60,0.0,0.0,96,0.08,,---,0.21,VWS V14.01,2013-02-23 13:55:00,
2013-02-23 08:59:00,35.7,34.7,30.03,ENE,60,0.0,1.0,96,0.07,,---,0.21,VWS V14.01,2013-02-23 13:59:00,
2013-02-23 09:00:00,35.7,34.7,30.03,ENE,60,0.0,1.0,96,0.07,,---,0.21,VWS V14.01,2013-02-23 14:00:00,
2013-02-23 09:04:00,35.7,34.7,30.03,ENE,60,1.0,3.0,96,0.06,,---,0.21,VWS V14.01,2013-02-23 14:04:00,
2013-02-23 09:05:00,35.7,34.7,30.03,ENE,60,1.0,3.0,96,0.06,,---,0.21,VWS V14.01,2013-02-23 14:05:00,
2013-02-23 09:10:00,35.7,34.7,30.02,ENE,60,0.0,1.0,96,0.05,,---,0.21,VWS V14.01,2013-02-23 14:10:00,
2013-02-23 09:14:00,35.8,34.8,30.01,ENE,60,0.0,2.0,96,0.04,,---,0.21,VWS V14.01,2013-02-23 14:14:00,
2013-02-23 09:15:00,35.8,34.8,30.01,ENE,60,0.0,2.0,96,0.04,,---,0.21,VWS V14.01,2013-02-23 14:15:00,
2013-02-23 09:20:00,35.9,35.1,30.01,ENE,60,1.0,1.0,97,0.03,,---,0.21,VWS V14.01,2013-02-23 14:20:00,
2013-02-23 09:24:00,36.0,35.2,30.00,ENE,60,0.0,1.0,97,0.02,,---,0.21,VWS V14.01,2013-02-23 14:24:00,
2013-02-23 09:25:00,36.0,35.2,30.00,ENE,60,0.0,1.0,97,0.02,,---,0.21,VWS V14.01,2013-02-23 14:25:00,
2013-02-23 09:29:00,36.1,35.3,30.00,ENE,60,1.0,1.0,97,0.01,,---,0.21,VWS V14.01,2013-02-23 14:29:00,
2013-02-23 09:30:00,36.1,35.3,30.00,ENE,60,1.0,1.0,97,0.01,,---,0.21,VWS V14.01,2013-02-23 14:30:00,
2013-02-23 09:34:00,36.1,35.3,30.01,NNE,31,0.0,3.0,97,0.01,,---,0.21,VWS V14.01,2013-02-23 14:34:00,
2013-02-23 09:35:00,36.1,35.3,30.01,NNE,31,0.0,3.0,97,0.01,,---,0.21,VWS V14.01,2013-02-23 14:35:00,
2013-02-23 09:39:00,36.1,35.3,30.02,NNE,31,0.0,3.0,97,0.01,,---,0.21,VWS V14.01,2013-02-23 14:39:00,
2013-02-23 09:40:00,36.1,35.3,30.02,NNE,31,0.0,3.0,97,0.01,,---,0.21,VWS V14.01,2013-02-23 14:40:00,
2013-02-23 09:44:00,36.2,35.4,30.01,NNE,31,0.0,1.0,97,0.01,,---,0.21,VWS V14.01,2013-02-23 14:44:00,
2013-02-23 09:45:00,36.2,35.4,30.01,NNE,31,0.0,1.0,97,0.01,,---,0.21,VWS V14.01,2013-02-23 14:45:00,
2013-02-23 09:50:00,36.3,35.5,30.01,NNE,31,1.0,1.0,97,0.01,,---,0.21,VWS V14.01,2013-02-23 14:50:00,
2013-02-23 09:54:00,36.3,35.3,30.01,NNE,31,0.0,1.0,96,0.01,,---,0.21,VWS V14.01,2013-02-23 14:54:00,
2013-02-23 09:55:00,36.3,35.3,30.01,NNE,31,0.0,1.0,96,0.01,,---,0.21,VWS V14.01,2013-02-23 14:55:00,
2013-02-23 09:59:00,36.3,35.3,30.01,NNW,338,2.0,4.0,96,0.00,,---,0.21,VWS V14.01,2013-02-23 14:59:00,
2013-02-23 10:00:00,36.3,35.3,30.01,NNW,338,2.0,4.0,96,0.00,,---,0.21,VWS V14.01,2013-02-23 15:00:00,
2013-02-23 10:05:00,36.3,35.3,30.03,NNW,346,0.0,4.0,96,0.00,,---,0.21,VWS V14.01,2013-02-23 15:05:00,
2013-02-23 10:09:00,36.4,35.4,30.03,NNW,346,0.0,3.0,96,0.00,,---,0.21,VWS V14.01,2013-02-23 15:09:00,
2013-02-23 10:10:00,36.4,35.4,30.03,NNW,346,0.0,3.0,96,0.00,,---,0.21,VWS V14.01,2013-02-23 15:10:00,
2013-02-23 10:14:00,36.6,35.8,30.03,NNW,346,0.0,1.0,97,0.00,,---,0.21,VWS V14.01,2013-02-23 15:14:00,
2013-02-23 10:15:00,36.6,35.8,30.03,NNW,346,0.0,1.0,97,0.00,,---,0.21,VWS V14.01,2013-02-23 15:15:00,
2013-02-23 10:19:00,36.8,36.0,30.02,NNW,346,0.0,0.0,97,0.00,,---,0.21,VWS V14.01,2013-02-23 15:19:00,
2013-02-23 10:20:00,36.8,36.0,30.02,NNW,346,0.0,0.0,97,0.00,,---,0.21,VWS V14.01,2013-02-23 15:20:00,
2013-02-23 10:24:00,36.9,36.1,30.02,NNW,346,0.0,0.0,97,0.00,,---,0.21,VWS V14.01,2013-02-23 15:24:00,
2013-02-23 10:25:00,36.9,36.1,30.02,NNW,346,0.0,0.0,97,0.00,,---,0.21,VWS V14.01,2013-02-23 15:25:00,
2013-02-23 10:30:00,38.1,37.1,30.01,NNW,346,0.0,1.0,96,0.00,,---,0.21,VWS V14.01,2013-02-23 15:30:00,
2013-02-23 10:34:00,36.9,35.9,30.03,NNW,346,0.0,0.0,96,0.00,,---,0.21,VWS V14.01,2013-02-23 15:34:00,
2013-02-23 10:35:00,36.9,35.9,30.03,NNW,346,0.0,0.0,96,0.00,,---,0.21,VWS V14.01,2013-02-23 15:35:00,
2013-02-23 10:39:00,37.0,36.2,30.02,NNW,346,0.0,1.0,97,0.00,,---,0.21,VWS V14.01,2013-02-23 15:39:00,
2013-02-23 10:40:00,37.0,36.2,30.02,NNW,346,0.0,1.0,97,0.00,,---,0.21,VWS V14.01,2013-02-23 15:40:00,
2013-02-23 10:44:00,37.1,36.3,30.02,NNW,346,0.0,1.0,97,0.00,,---,0.21,VWS V14.01,2013-02-23 15:44:00,
2013-02-23 10:45:00,37.1,36.3,30.02,NNW,346,0.0,1.0,97,0.00,,---,0.21,VWS V14.01,2013-02-23 15:45:00,
2013-02-23 10:50:00,37.2,36.4,30.01,NNW,346,0.0,1.0,97,0.00,,---,0.21,VWS V14.01,2013-02-23 15:50:00,
2013-02-23 10:54:00,37.3,36.3,30.01,NNW,346,0.0,0.0,96,0.00,,---,0.21,VWS V14.01,2013-02-23 15:54:00,
2013-02-23 10:55:00,37.3,36.3,30.01,NNW,346,0.0,0.0,96,0.00,,---,0.21,VWS V14.01,2013-02-23 15:55:00,
2013-02-23 10:59:00,37.4,36.4,30.01,NNW,346,0.0,1.0,96,0.00,,---,0.21,VWS V14.01,2013-02-23 15:59:00,
2013-02-23 11:00:00,37.4,36.4,30.01,NNW,346,0.0,1.0,96,0.00,,---,0.21,VWS V14.01,2013-02-23 16:00:00,
2013-02-23 11:04:00,37.5,36.5,30.01,NNW,346,0.0,2.0,96,0.00,,---,0.21,VWS V14.01,2013-02-23 16:04:00,
2013-02-23 11:05:00,37.5,36.5,30.01,NNW,346,0.0,2.0,96,0.00,,---,0.21,VWS V14.01,2013-02-23 16:05:00,
2013-02-23 11:10:00,37.7,36.9,30.02,NNW,346,0.0,2.0,97,0.00,,---,0.21,VWS V14.01,2013-02-23 16:10:00,
2013-02-23 11:14:00,37.9,37.1,30.01,NNW,346,1.0,1.0,97,0.00,,---,0.21,VWS V14.01,2013-02-23 16:14:00,
2013-02-23 11:15:00,37.9,37.1,30.01,NNW,346,1.0,1.0,97,0.00,,---,0.21,VWS V14.01,2013-02-23 16:15:00,
2013-02-23 11:19:00,38.0,37.0,30.01,NNW,346,1.0,1.0,96,0.00,,---,0.21,VWS V14.01,2013-02-23 16:19:00,
2013-02-23 11:20:00,38.0,37.0,30.01,NNW,346,1.0,1.0,96,0.00,,---,0.21,VWS V14.01,2013-02-23 16:20:00,
2013-02-23 11:24:00,38.0,37.0,30.01,NNW,346,0.0,2.0,96,0.00,,---,0.21,VWS V14.01,2013-02-23 16:24:00,
2013-02-23 11:25:00,38.0,37.0,30.01,NNW,346,0.0,2.0,96,0.00,,---,0.21,VWS V14.01,2013-02-23 16:25:00,
2013-02-23 11:29:00,38.1,37.1,30.01,NNW,346,0.0,1.0,96,0.00,,---,0.21,VWS V14.01,2013-02-23 16:29:00,
2013-02-23 11:30:00,38.1,37.1,30.01,NNW,346,0.0,1.0,96,0.00,,---,0.21,VWS V14.01,2013-02-23 16:30:00,
2013-02-23 11:34:00,38.2,37.2,30.01,NNW,346,0.0,1.0,96,0.00,,---,0.21,VWS V14.01,2013-02-23 16:34:00,
2013-02-23 11:35:00,38.2,37.2,30.01,NNW,346,0.0,1.0,96,0.00,,---,0.21,VWS V14.01,2013-02-23 16:35:00,
2013-02-23 11:40:00,38.4,37.4,30.01,NNW,346,0.0,1.0,96,0.00,,---,0.21,VWS V14.01,2013-02-23 16:40:00,
2013-02-23 11:44:00,38.5,37.5,30.01,NNW,346,0.0,2.0,96,0.00,,---,0.21,VWS V14.01,2013-02-23 16:44:00,
2013-02-23 11:45:00,38.5,37.5,30.01,NNW,346,0.0,2.0,96,0.00,,---,0.21,VWS V14.01,2013-02-23 16:45:00,
2013-02-23 11:49:00,38.6,37.6,30.01,NNW,346,0.0,1.0,96,0.00,,---,0.21,VWS V14.01,2013-02-23 16:49:00,
2013-02-23 11:50:00,38.6,37.6,30.01,NNW,346,0.0,1.0,96,0.00,,---,0.21,VWS V14.01,2013-02-23 16:50:00,
2013-02-23 11:54:00,38.6,37.6,30.01,NNW,346,0.0,3.0,96,0.00,,---,0.21,VWS V14.01,2013-02-23 16:54:00,
2013-02-23 11:55:00,38.6,37.6,30.01,NNW,346,0.0,3.0,96,0.00,,---,0.21,VWS V14.01,2013-02-23 16:55:00,
2013-02-23 12:00:00,38.6,37.6,30.01,NNW,346,1.0,3.0,96,0.00,,---,0.21,VWS V14.01,2013-02-23 17:00:00,
2013-02-23 12:04:00,38.9,37.9,30.01,NNW,346,0.0,2.0,96,0.00,,---,0.21,VWS V14.01,2013-02-23 17:04:00,
2013-02-23 12:05:00,38.9,37.9,30.01,NNW,346,0.0,2.0,96,0.00,,---,0.21,VWS V14.01,2013-02-23 17:05:00,
2013-02-23 12:09:00,39.0,38.0,30.00,NNW,346,0.0,1.0,96,0.00,,---,0.21,VWS V14.01,2013-02-23 17:09:00,
2013-02-23 12:10:00,39.0,38.0,30.00,NNW,346,0.0,1.0,96,0.00,,---,0.21,VWS V14.01,2013-02-23 17:10:00,
2013-02-23 12:14:00,39.1,38.1,30.00,NNW,346,0.0,1.0,96,0.00,,---,0.21,VWS V14.01,2013-02-23 17:14:00,
2013-02-23 12:15:00,39.1,38.1,30.00,NNW,346,0.0,1.0,96,0.00,,---,0.21,VWS V14.01,2013-02-23 17:15:00,
2013-02-23 12:19:00,39.2,37.9,29.99,NNW,346,0.0,2.0,95,0.00,,---,0.21,VWS V14.01,2013-02-23 17:19:00,
2013-02-23 12:20:00,39.2,37.9,29.99,NNW,346,0.0,2.0,95,0.00,,---,0.21,VWS V14.01,2013-02-23 17:20:00,
2013-02-23 12:25:00,39.3,38.0,29.99,NNW,346,0.0,1.0,95,0.00,,---,0.21,VWS V14.01,2013-02-23 17:25:00,
2013-02-23 12:29:00,39.4,38.1,29.99,NNW,346,0.0,1.0,95,0.00,,---,0.21,VWS V14.01,2013-02-23 17:29:00,
2013-02-23 12:30:00,42.1,40.2,29.97,NNW,333,0.0,3.0,93,0.00,,---,0.21,VWS V14.01,2013-02-23 17:30:00,
2013-02-23 12:34:00,39.6,38.3,29.99,NNW,346,0.0,1.0,95,0.00,,---,0.21,VWS V14.01,2013-02-23 17:34:00,
2013-02-23 12:35:00,39.6,38.3,29.99,NNW,346,0.0,1.0,95,0.00,,---,0.21,VWS V14.01,2013-02-23 17:35:00,
2013-02-23 12:39:00,39.8,38.5,29.99,NNW,346,0.0,1.0,95,0.00,,---,0.21,VWS V14.01,2013-02-23 17:39:00,
2013-02-23 12:40:00,39.8,38.5,29.99,NNW,346,0.0,1.0,95,0.00,,---,0.21,VWS V14.01,2013-02-23 17:40:00,
2013-02-23 12:44:00,40.2,39.2,29.99,NNW,346,1.0,1.0,96,0.00,,---,0.21,VWS V14.01,2013-02-23 17:44:00,
2013-02-23 12:45:00,40.2,39.2,29.99,NNW,346,1.0,1.0,96,0.00,,---,0.21,VWS V14.01,2013-02-23 17:45:00,
2013-02-23 12:49:00,40.3,38.7,29.99,NNW,339,0.0,3.0,94,0.00,,---,0.21,VWS V14.01,2013-02-23 17:49:00,
2013-02-23 12:50:00,40.3,38.7,29.99,NNW,339,0.0,3.0,94,0.00,,---,0.21,VWS V14.01,2013-02-23 17:50:00,
2013-02-23 12:54:00,40.3,38.7,29.99,NNW,339,0.0,1.0,94,0.00,,---,0.21,VWS V14.01,2013-02-23 17:54:00,
2013-02-23 12:55:00,40.3,38.7,29.99,NNW,339,0.0,1.0,94,0.00,,---,0.21,VWS V14.01,2013-02-23 17:55:00,
2013-02-23 12:59:00,40.4,38.8,29.99,NNW,339,1.0,2.0,94,0.00,,---,0.21,VWS V14.01,2013-02-23 17:59:00,
2013-02-23 13:00:00,40.4,38.8,29.99,NNW,339,1.0,2.0,94,0.00,,---,0.21,VWS V14.01,2013-02-23 18:00:00,
2013-02-23 13:04:00,40.6,39.0,29.99,NNW,339,0.0,1.0,94,0.00,,---,0.21,VWS V14.01,2013-02-23 18:04:00,
2013-02-23 13:05:00,40.6,39.0,29.99,NNW,339,0.0,1.0,94,0.00,,---,0.21,VWS V14.01,2013-02-23 18:05:00,
2013-02-23 13:09:00,40.9,39.3,29.98,NNW,339,2.0,3.0,94,0.00,,---,0.21,VWS V14.01,2013-02-23 18:09:00,
2013-02-23 13:10:00,40.9,39.3,29.98,NNW,339,2.0,3.0,94,0.00,,---,0.21,VWS V14.01,2013-02-23 18:10:00,
2013-02-23 13:14:00,41.0,39.4,29.98,NNW,339,0.0,2.0,94,0.00,,---,0.21,VWS V14.01,2013-02-23 18:14:00,
2013-02-23 13:15:00,41.0,39.4,29.98,NNW,339,0.0,2.0,94,0.00,,---,0.21,VWS V14.01,2013-02-23 18:15:00,
2013-02-23 13:20:00,41.3,39.7,29.97,NNW,333,0.0,3.0,94,0.00,,---,0.21,VWS V14.01,2013-02-23 18:20:00,
2013-02-23 13:24:00,41.8,40.2,29.97,NNW,333,2.0,3.0,94,0.00,,---,0.21,VWS V14.01,2013-02-23 18:24:00,
2013-02-23 13:25:00,41.8,40.2,29.97,NNW,333,2.0,3.0,94,0.00,,---,0.21,VWS V14.01,2013-02-23 18:25:00,
2013-02-23 13:30:00,42.1,40.2,29.97,NNW,333,0.0,3.0,93,0.00,,---,0.21,VWS V14.01,2013-02-23 18:30:00,
2013-02-23 13:34:00,42.2,40.0,29.97,NNW,333,2.0,2.0,92,0.00,,---,0.21,VWS V14.01,2013-02-23 18:34:00,
2013-02-23 13:35:00,42.2,40.0,29.97,NNW,333,2.0,2.0,92,0.00,,---,0.21,VWS V14.01,2013-02-23 18:35:00,
2013-02-23 13:39:00,42.3,40.2,29.96,NNW,333,0.0,2.0,92,0.00,,---,0.21,VWS V14.01,2013-02-23 18:39:00,
2013-02-23 13:40:00,42.3,40.2,29.96,NNW,333,0.0,2.0,92,0.00,,---,0.21,VWS V14.01,2013-02-23 18:40:00,
2013-02-23 13:44:00,42.5,40.3,29.96,NNW,333,0.0,0.0,92,0.00,,---,0.21,VWS V14.01,2013-02-23 18:44:00,
2013-02-23 13:45:00,42.5,40.3,29.96,NNW,333,0.0,0.0,92,0.00,,---,0.21,VWS V14.01,2013-02-23 18:45:00,
2013-02-23 13:49:00,42.7,40.3,29.95,NNW,339,0.0,4.0,91,0.00,,---,0.21,VWS V14.01,2013-02-23 18:49:00,
2013-02-23 13:50:00,42.7,40.3,29.95,NNW,339,0.0,4.0,91,0.00,,---,0.21,VWS V14.01,2013-02-23 18:50:00,
2013-02-23 13:54:00,42.9,40.2,29.94,NNW,345,2.0,3.0,90,0.00,,---,0.21,VWS V14.01,2013-02-23 18:54:00,
2013-02-23 13:55:00,42.9,40.2,29.94,NNW,345,2.0,3.0,90,0.00,,---,0.21,VWS V14.01,2013-02-23 18:55:00,
2013-02-23 14:00:00,43.3,41.1,29.94,NNW,345,1.0,3.0,92,0.00,,---,0.21,VWS V14.01,2013-02-23 19:00:00,
2013-02-23 14:04:00,43.6,40.9,29.94,NNW,346,4.0,5.0,90,0.00,,---,0.21,VWS V14.01,2013-02-23 19:04:00,
2013-02-23 14:05:00,43.6,40.9,29.94,NNW,346,4.0,5.0,90,0.00,,---,0.21,VWS V14.01,2013-02-23 19:05:00,
2013-02-23 14:10:00,43.7,41.0,29.95,NNW,342,0.0,5.0,90,0.00,,---,0.21,VWS V14.01,2013-02-23 19:10:00,
2013-02-23 14:14:00,44.0,41.3,29.95,NNW,342,0.0,2.0,90,0.00,,---,0.21,VWS V14.01,2013-02-23 19:14:00,
2013-02-23 14:15:00,44.0,41.3,29.95,NNW,342,0.0,2.0,90,0.00,,---,0.21,VWS V14.01,2013-02-23 19:15:00,
2013-02-23 14:20:00,44.1,41.4,29.95,NNE,13,0.0,4.0,90,0.00,,---,0.21,VWS V14.01,2013-02-23 19:20:00,
2013-02-23 14:24:00,44.4,41.7,29.95,NNE,13,0.0,1.0,90,0.00,,---,0.21,VWS V14.01,2013-02-23 19:24:00,
2013-02-23 14:25:00,44.4,41.7,29.95,NNE,13,0.0,1.0,90,0.00,,---,0.21,VWS V14.01,2013-02-23 19:25:00,
2013-02-23 14:29:00,44.6,41.8,29.95,NNE,13,0.0,1.0,90,0.00,,---,0.21,VWS V14.01,2013-02-23 19:29:00,
2013-02-23 14:30:00,44.6,41.8,29.95,NNE,13,0.0,1.0,90,0.00,,---,0.21,VWS V14.01,2013-02-23 19:30:00,
2013-02-23 14:34:00,44.8,42.0,29.95,NNE,13,0.0,0.0,90,0.00,,---,0.21,VWS V14.01,2013-02-23 19:34:00,
2013-02-23 14:35:00,44.8,42.0,29.95,NNE,13,0.0,0.0,90,0.00,,---,0.21,VWS V14.01,2013-02-23 19:35:00,
2013-02-23 14:39:00,45.0,42.0,29.94,NNE,13,0.0,1.0,89,0.00,,---,0.21,VWS V14.01,2013-02-23 19:39:00,
2013-02-23 14:40:00,45.0,42.0,29.94,NNE,13,0.0,1.0,89,0.00,,---,0.21,VWS V14.01,2013-02-23 19:40:00,
2013-02-23 14:44:00,45.1,42.1,29.94,NNE,13,0.0,2.0,89,0.00,,---,0.21,VWS V14.01,2013-02-23 19:44:00,
2013-02-23 14:45:00,45.1,42.1,29.94,NNE,13,0.0,2.0,89,0.00,,---,0.21,VWS V14.01,2013-02-23 19:45:00,
2013-02-23 14:50:00,45.2,41.9,29.93,NNE,13,0.0,2.0,88,0.00,,---,0.21,VWS V14.01,2013-02-23 19:50:00,
2013-02-23 14:54:00,45.4,42.3,29.93,NNW,345,2.0,2.0,89,0.00,,---,0.21,VWS V14.01,2013-02-23 19:54:00,
2013-02-23 14:55:00,45.4,42.3,29.93,NNW,345,2.0,2.0,89,0.00,,---,0.21,VWS V14.01,2013-02-23 19:55:00,
2013-02-23 14:59:00,45.8,42.5,29.93,NNW,345,2.0,2.0,88,0.00,,---,0.21,VWS V14.01,2013-02-23 19:59:00,
2013-02-23 15:00:00,45.8,42.5,29.93,NNW,345,2.0,2.0,88,0.00,,---,0.21,VWS V14.01,2013-02-23 20:00:00,
2013-02-23 15:04:00,45.8,42.5,29.93,North,355,0.0,3.0,88,0.00,,---,0.21,VWS V14.01,2013-02-23 20:04:00,
2013-02-23 15:05:00,45.8,42.5,29.93,North,355,0.0,3.0,88,0.00,,---,0.21,VWS V14.01,2013-02-23 20:05:00,
2013-02-23 15:09:00,46.1,42.8,29.92,North,355,0.0,1.0,88,0.00,,---,0.21,VWS V14.01,2013-02-23 20:09:00,
2013-02-23 15:10:00,46.1,42.8,29.92,North,355,0.0,1.0,88,0.00,,---,0.21,VWS V14.01,2013-02-23 20:10:00,
2013-02-23 15:15:00,46.4,42.8,29.93,North,350,0.0,3.0,87,0.00,,---,0.21,VWS V14.01,2013-02-23 20:15:00,
2013-02-23 15:19:00,46.5,42.8,29.92,North,350,0.0,1.0,87,0.00,,---,0.21,VWS V14.01,2013-02-23 20:19:00,
2013-02-23 15:20:00,46.5,42.8,29.92,North,350,0.0,1.0,87,0.00,,---,0.21,VWS V14.01,2013-02-23 20:20:00,
2013-02-23 15:25:00,46.7,43.0,29.92,North,350,0.0,1.0,87,0.00,,---,0.21,VWS V14.01,2013-02-23 20:25:00,
2013-02-23 15:29:00,46.7,43.0,29.92,North,350,0.0,1.0,87,0.00,,---,0.21,VWS V14.01,2013-02-23 20:29:00,
2013-02-23 15:30:00,46.7,43.0,29.92,North,350,0.0,1.0,87,0.00,,---,0.21,VWS V14.01,2013-02-23 20:30:00,
2013-02-23 15:34:00,46.8,43.1,29.92,North,350,0.0,2.0,87,0.00,,---,0.21,VWS V14.01,2013-02-23 20:34:00,
2013-02-23 15:35:00,46.8,43.1,29.92,North,350,0.0,2.0,87,0.00,,---,0.21,VWS V14.01,2013-02-23 20:35:00,
2013-02-23 15:39:00,46.9,43.2,29.93,North,350,0.0,0.0,87,0.00,,---,0.21,VWS V14.01,2013-02-23 20:39:00,
2013-02-23 15:40:00,46.9,43.2,29.93,North,350,0.0,0.0,87,0.00,,---,0.21,VWS V14.01,2013-02-23 20:40:00,
2013-02-23 15:45:00,47.1,43.1,29.92,North,350,0.0,1.0,86,0.00,,---,0.21,VWS V14.01,2013-02-23 20:45:00,
2013-02-23 15:49:00,47.2,43.2,29.93,North,350,0.0,1.0,86,0.00,,---,0.21,VWS V14.01,2013-02-23 20:49:00,
2013-02-23 15:50:00,47.2,43.2,29.93,North,350,0.0,1.0,86,0.00,,---,0.21,VWS V14.01,2013-02-23 20:50:00,
2013-02-23 15:54:00,47.3,43.3,29.92,NNW,348,2.0,2.0,86,0.00,,---,0.21,VWS V14.01,2013-02-23 20:54:00,
2013-02-23 15:55:00,47.3,43.3,29.92,NNW,348,2.0,2.0,86,0.00,,---,0.21,VWS V14.01,2013-02-23 20:55:00,
2013-02-23 15:59:00,47.3,43.3,29.91,NNW,348,0.0,2.0,86,0.00,,---,0.21,VWS V14.01,2013-02-23 20:59:00,
2013-02-23 16:00:00,47.3,43.3,29.91,NNW,348,0.0,2.0,86,0.00,,---,0.21,VWS V14.01,2013-02-23 21:00:00,
2013-02-23 16:04:00,47.5,43.8,29.91,NNW,348,0.0,1.0,87,0.00,,---,0.21,VWS V14.01,2013-02-23 21:04:00,
2013-02-23 16:05:00,47.5,43.8,29.91,NNW,348,0.0,1.0,87,0.00,,---,0.21,VWS V14.01,2013-02-23 21:05:00,
2013-02-23 16:09:00,47.7,43.7,29.92,WNW,290,2.0,2.0,86,0.00,,---,0.21,VWS V14.01,2013-02-23 21:09:00,
2013-02-23 16:10:00,47.7,43.7,29.92,WNW,290,2.0,2.0,86,0.00,,---,0.21,VWS V14.01,2013-02-23 21:10:00,
2013-02-23 16:14:00,47.7,43.7,29.92,West,259,0.0,3.0,86,0.00,,---,0.21,VWS V14.01,2013-02-23 21:14:00,
2013-02-23 16:15:00,47.7,43.7,29.92,West,259,0.0,3.0,86,0.00,,---,0.21,VWS V14.01,2013-02-23 21:15:00,
2013-02-23 16:20:00,47.8,43.5,29.92,West,259,1.0,3.0,85,0.00,,---,0.21,VWS V14.01,2013-02-23 21:20:00,
2013-02-23 16:24:00,47.7,43.4,29.92,West,259,0.0,1.0,85,0.00,,---,0.21,VWS V14.01,2013-02-23 21:24:00,
2013-02-23 16:25:00,47.7,43.4,29.92,West,259,0.0,1.0,85,0.00,,---,0.21,VWS V14.01,2013-02-23 21:25:00,
2013-02-23 16:29:00,47.9,43.9,29.92,West,259,0.0,0.0,86,0.00,,---,0.21,VWS V14.01,2013-02-23 21:29:00,
2013-02-23 16:30:00,47.9,43.9,29.92,West,259,0.0,0.0,86,0.00,,---,0.21,VWS V14.01,2013-02-23 21:30:00,
2013-02-23 16:35:00,48.0,44.0,29.92,West,259,0.0,2.0,86,0.00,,---,0.21,VWS V14.01,2013-02-23 21:35:00,
2013-02-23 16:39:00,48.1,43.8,29.92,West,259,0.0,2.0,85,0.00,,---,0.21,VWS V14.01,2013-02-23 21:39:00,
2013-02-23 16:40:00,48.1,43.8,29.92,West,259,0.0,2.0,85,0.00,,---,0.21,VWS V14.01,2013-02-23 21:40:00,
2013-02-23 16:45:00,48.3,44.3,29.91,West,259,0.0,1.0,86,0.00,,---,0.21,VWS V14.01,2013-02-23 21:45:00,
2013-02-23 16:49:00,48.3,44.3,29.92,West,259,0.0,2.0,86,0.00,,---,0.21,VWS V14.01,2013-02-23 21:49:00,
2013-02-23 16:50:00,48.3,44.3,29.92,West,259,0.0,2.0,86,0.00,,---,0.21,VWS V14.01,2013-02-23 21:50:00,
2013-02-23 16:55:00,48.4,44.4,29.92,West,259,0.0,1.0,86,0.00,,---,0.21,VWS V14.01,2013-02-23 21:55:00,
2013-02-23 16:59:00,48.4,44.1,29.91,West,259,0.0,0.0,85,0.00,,---,0.21,VWS V14.01,2013-02-23 21:59:00,
2013-02-23 17:00:00,48.4,44.1,29.91,West,259,0.0,0.0,85,0.00,,---,0.21,VWS V14.01,2013-02-23 22:00:00,
2013-02-23 17:04:00,48.4,44.4,29.91,West,259,0.0,0.0,86,0.00,,---,0.21,VWS V14.01,2013-02-23 22:04:00,
2013-02-23 17:05:00,48.4,44.4,29.91,West,259,0.0,0.0,86,0.00,,---,0.21,VWS V14.01,2013-02-23 22:05:00,
2013-02-23 17:09:00,48.3,44.0,29.91,West,259,0.0,2.0,85,0.00,,---,0.21,VWS V14.01,2013-02-23 22:09:00,
2013-02-23 17:10:00,48.3,44.0,29.91,West,259,0.0,2.0,85,0.00,,---,0.21,VWS V14.01,2013-02-23 22:10:00,
2013-02-23 17:14:00,48.1,43.8,29.90,West,259,0.0,2.0,85,0.00,,---,0.21,VWS V14.01,2013-02-23 22:14:00,
2013-02-23 17:15:00,48.1,43.8,29.90,West,259,0.0,2.0,85,0.00,,---,0.21,VWS V14.01,2013-02-23 22:15:00,
2013-02-23 17:20:00,48.0,43.7,29.90,West,259,0.0,1.0,85,0.00,,---,0.21,VWS V14.01,2013-02-23 22:20:00,
2013-02-23 17:24:00,48.0,43.7,29.89,West,259,0.0,0.0,85,0.00,,---,0.21,VWS V14.01,2013-02-23 22:24:00,
2013-02-23 17:25:00,48.0,43.7,29.89,West,259,0.0,0.0,85,0.00,,---,0.21,VWS V14.01,2013-02-23 22:25:00,
2013-02-23 17:29:00,47.9,43.6,29.89,West,259,0.0,0.0,85,0.00,,---,0.21,VWS V14.01,2013-02-23 22:29:00,
2013-02-23 17:30:00,47.9,43.6,29.89,West,259,0.0,0.0,85,0.00,,---,0.21,VWS V14.01,2013-02-23 22:30:00,
2013-02-23 17:34:00,47.7,43.7,29.89,West,259,0.0,0.0,86,0.00,,---,0.21,VWS V14.01,2013-02-23 22:34:00,
2013-02-23 17:35:00,47.7,43.7,29.89,West,259,0.0,0.0,86,0.00,,---,0.21,VWS V14.01,2013-02-23 22:35:00,
2013-02-23 17:40:00,47.6,43.6,29.89,West,259,0.0,0.0,86,0.00,,---,0.21,VWS V14.01,2013-02-23 22:40:00,
2013-02-23 17:45:00,47.5,43.5,29.89,West,259,0.0,0.0,86,0.00,,---,0.21,VWS V14.01,2013-02-23 22:45:00,
2013-02-23 17:49:00,47.4,43.7,29.89,West,259,0.0,0.0,87,0.00,,---,0.21,VWS V14.01,2013-02-23 22:49:00,
2013-02-23 17:50:00,47.4,43.7,29.89,West,259,0.0,0.0,87,0.00,,---,0.21,VWS V14.01,2013-02-23 22:50:00,
2013-02-23 17:55:00,45.0,42.5,29.87,West,259,0.0,0.0,91,0.01,,---,0.22,VWS V14.01,2013-02-23 22:55:00,
2013-02-23 17:59:00,47.2,43.5,29.88,West,259,0.0,0.0,87,0.00,,---,0.21,VWS V14.01,2013-02-23 22:59:00,
2013-02-23 18:00:00,47.2,43.5,29.88,West,259,0.0,0.0,87,0.00,,---,0.21,VWS V14.01,2013-02-23 23:00:00,
2013-02-23 18:04:00,47.0,43.3,29.88,West,259,0.0,0.0,87,0.00,,---,0.21,VWS V14.01,2013-02-23 23:04:00,
2013-02-23 18:05:00,47.0,43.3,29.88,West,259,0.0,0.0,87,0.00,,---,0.21,VWS V14.01,2013-02-23 23:05:00,
2013-02-23 18:09:00,46.8,44.6,29.89,West,259,0.0,0.0,92,0.00,,---,0.21,VWS V14.01,2013-02-23 23:09:00,
2013-02-23 18:10:00,46.8,44.6,29.89,West,259,0.0,0.0,92,0.00,,---,0.21,VWS V14.01,2013-02-23 23:10:00,
2013-02-23 18:14:00,46.6,43.2,29.88,West,259,0.0,0.0,88,0.00,,---,0.21,VWS V14.01,2013-02-23 23:14:00,
2013-02-23 18:15:00,46.6,43.2,29.88,West,259,0.0,0.0,88,0.00,,---,0.21,VWS V14.01,2013-02-23 23:15:00,
2013-02-23 18:20:00,46.4,43.3,29.88,West,259,0.0,0.0,89,0.00,,---,0.21,VWS V14.01,2013-02-23 23:20:00,
2013-02-23 18:24:00,46.3,43.2,29.88,West,259,0.0,0.0,89,0.00,,---,0.21,VWS V14.01,2013-02-23 23:24:00,
2013-02-23 18:25:00,46.3,43.2,29.88,West,259,0.0,0.0,89,0.00,,---,0.21,VWS V14.01,2013-02-23 23:25:00,
2013-02-23 18:29:00,46.0,43.0,29.88,West,259,0.0,0.0,89,0.00,,---,0.21,VWS V14.01,2013-02-23 23:29:00,
2013-02-23 18:30:00,46.0,43.0,29.88,West,259,0.0,0.0,89,0.00,,---,0.21,VWS V14.01,2013-02-23 23:30:00,
2013-02-23 18:34:00,45.8,43.0,29.88,West,259,0.0,0.0,90,0.00,,---,0.21,VWS V14.01,2013-02-23 23:34:00,
2013-02-23 18:35:00,45.8,43.0,29.88,West,259,0.0,0.0,90,0.00,,---,0.21,VWS V14.01,2013-02-23 23:35:00,
2013-02-23 18:39:00,45.6,42.8,29.87,West,259,0.0,0.0,90,0.01,,---,0.22,VWS V14.01,2013-02-23 23:39:00,
2013-02-23 18:40:00,45.6,42.8,29.87,West,259,0.0,0.0,90,0.01,,---,0.22,VWS V14.01,2013-02-23 23:40:00,
2013-02-23 18:45:00,45.4,42.6,29.87,West,259,0.0,0.0,90,0.01,,---,0.22,VWS V14.01,2013-02-23 23:45:00,
2013-02-23 18:49:00,45.2,42.7,29.87,West,259,0.0,0.0,91,0.01,,---,0.22,VWS V14.01,2013-02-23 23:49:00,
2013-02-23 18:50:00,45.2,42.7,29.87,West,259,0.0,0.0,91,0.01,,---,0.22,VWS V14.01,2013-02-23 23:50:00,
2013-02-23 18:54:00,45.0,42.5,29.87,West,259,0.0,0.0,91,0.01,,---,0.22,VWS V14.01,2013-02-23 23:54:00,
2013-02-23 18:55:00,45.0,42.5,29.87,West,259,0.0,0.0,91,0.01,,---,0.22,VWS V14.01,2013-02-23 23:55:00,
2013-02-23 18:59:00,44.9,42.7,29.87,West,259,0.0,0.0,92,0.01,,---,0.22,VWS V14.01,2013-02-23 23:59:00,
2013-02-23 19:00:00,44.9,42.7,29.87,West,259,0.0,0.0,92,0.01,,---,0.22,VWS V14.01,2013-02-24 00:00:00,
2013-02-23 19:04:00,44.7,42.5,29.88,West,259,0.0,0.0,92,0.01,,---,0.22,VWS V14.01,2013-02-24 00:04:00,
2013-02-23 19:05:00,44.7,42.5,29.88,West,259,0.0,0.0,92,0.01,,---,0.22,VWS V14.01,2013-02-24 00:05:00,
2013-02-23 19:10:00,43.6,42.0,29.87,West,259,0.0,0.0,94,0.00,,---,0.22,VWS V14.01,2013-02-24 00:10:00,
2013-02-23 19:14:00,44.4,42.5,29.87,West,259,0.0,0.0,93,0.01,,---,0.22,VWS V14.01,2013-02-24 00:14:00,
2013-02-23 19:15:00,44.4,42.5,29.87,West,259,0.0,0.0,93,0.01,,---,0.22,VWS V14.01,2013-02-24 00:15:00,
2013-02-23 19:19:00,44.4,42.5,29.87,West,259,0.0,0.0,93,0.01,,---,0.22,VWS V14.01,2013-02-24 00:19:00,
2013-02-23 19:20:00,44.4,42.5,29.87,West,259,0.0,0.0,93,0.01,,---,0.22,VWS V14.01,2013-02-24 00:20:00,
2013-02-23 19:24:00,44.3,42.4,29.87,West,259,0.0,0.0,93,0.01,,---,0.22,VWS V14.01,2013-02-24 00:24:00,
2013-02-23 19:25:00,44.3,42.4,29.87,West,259,0.0,0.0,93,0.01,,---,0.22,VWS V14.01,2013-02-24 00:25:00,
2013-02-23 19:30:00,44.2,42.3,29.87,West,259,0.0,0.0,93,0.01,,---,0.22,VWS V14.01,2013-02-24 00:30:00,
2013-02-23 19:34:00,44.2,42.6,29.87,West,259,0.0,1.0,94,0.01,,---,0.22,VWS V14.01,2013-02-24 00:34:00,
2013-02-23 19:35:00,44.2,42.6,29.87,West,259,0.0,1.0,94,0.01,,---,0.22,VWS V14.01,2013-02-24 00:35:00,
2013-02-23 19:40:00,44.2,42.6,29.87,West,259,0.0,1.0,94,0.01,,---,0.22,VWS V14.01,2013-02-24 00:40:00,
2013-02-23 19:44:00,44.2,42.6,29.87,West,259,0.0,1.0,94,0.00,,---,0.22,VWS V14.01,2013-02-24 00:44:00,
2013-02-23 19:45:00,44.2,42.6,29.87,West,259,0.0,1.0,94,0.00,,---,0.22,VWS V14.01,2013-02-24 00:45:00,
2013-02-23 19:49:00,44.2,42.6,29.87,West,259,0.0,0.0,94,0.00,,---,0.22,VWS V14.01,2013-02-24 00:49:00,
2013-02-23 19:50:00,44.2,42.6,29.87,West,259,0.0,0.0,94,0.00,,---,0.22,VWS V14.01,2013-02-24 00:50:00,
2013-02-23 19:55:00,44.2,42.6,29.86,West,259,0.0,0.0,94,0.00,,---,0.22,VWS V14.01,2013-02-24 00:55:00,
2013-02-23 19:59:00,44.1,42.5,29.87,West,259,1.0,2.0,94,0.00,,---,0.22,VWS V14.01,2013-02-24 00:59:00,
2013-02-23 20:00:00,44.1,42.5,29.87,West,259,1.0,2.0,94,0.00,,---,0.22,VWS V14.01,2013-02-24 01:00:00,
2013-02-23 20:04:00,43.6,41.7,29.87,West,259,0.0,2.0,93,0.00,,---,0.22,VWS V14.01,2013-02-24 01:04:00,
2013-02-23 20:05:00,43.6,41.7,29.87,West,259,0.0,2.0,93,0.00,,---,0.22,VWS V14.01,2013-02-24 01:05:00,
2013-02-23 20:09:00,43.6,42.0,29.87,West,259,0.0,0.0,94,0.00,,---,0.22,VWS V14.01,2013-02-24 01:09:00,
2013-02-23 20:10:00,43.6,42.0,29.87,West,259,0.0,0.0,94,0.00,,---,0.22,VWS V14.01,2013-02-24 01:10:00,
2013-02-23 20:14:00,43.6,42.0,29.87,West,259,0.0,2.0,94,0.00,,---,0.22,VWS V14.01,2013-02-24 01:14:00,
2013-02-23 20:15:00,43.6,42.0,29.87,West,259,0.0,2.0,94,0.00,,---,0.22,VWS V14.01,2013-02-24 01:15:00,
2013-02-23 20:19:00,43.6,42.0,29.87,West,259,0.0,2.0,94,0.00,,---,0.22,VWS V14.01,2013-02-24 01:19:00,
2013-02-23 20:20:00,43.6,42.0,29.87,West,259,0.0,2.0,94,0.00,,---,0.22,VWS V14.01,2013-02-24 01:20:00,
2013-02-23 20:24:00,43.7,42.1,29.87,West,259,0.0,1.0,94,0.00,,---,0.22,VWS V14.01,2013-02-24 01:24:00,
2013-02-23 20:25:00,43.6,42.3,29.85,West,259,1.0,1.0,95,0.00,,---,0.22,VWS V14.01,2013-02-24 01:25:00,
2013-02-23 20:29:00,43.6,42.0,29.88,West,259,0.0,1.0,94,0.00,,---,0.22,VWS V14.01,2013-02-24 01:29:00,
2013-02-23 20:30:00,43.6,42.0,29.88,West,259,0.0,1.0,94,0.00,,---,0.22,VWS V14.01,2013-02-24 01:30:00,
2013-02-23 20:34:00,43.5,41.9,29.88,West,259,2.0,2.0,94,0.00,,---,0.22,VWS V14.01,2013-02-24 01:34:00,
2013-02-23 20:35:00,43.5,41.9,29.88,West,259,2.0,2.0,94,0.00,,---,0.22,VWS V14.01,2013-02-24 01:35:00,
2013-02-23 20:40:00,43.5,41.9,29.88,West,259,2.0,2.0,94,0.00,,---,0.22,VWS V14.01,2013-02-24 01:40:00,
2013-02-23 20:44:00,43.7,42.4,29.87,West,259,0.0,2.0,95,0.00,,---,0.22,VWS V14.01,2013-02-24 01:44:00,
2013-02-23 20:45:00,43.7,42.4,29.87,West,259,0.0,2.0,95,0.00,,---,0.22,VWS V14.01,2013-02-24 01:45:00,
2013-02-23 20:49:00,43.7,42.4,29.88,West,259,0.0,1.0,95,0.00,,---,0.22,VWS V14.01,2013-02-24 01:49:00,
2013-02-23 20:50:00,43.7,42.4,29.88,West,259,0.0,1.0,95,0.00,,---,0.22,VWS V14.01,2013-02-24 01:50:00,
2013-02-23 20:54:00,43.7,42.4,29.87,West,259,0.0,0.0,95,0.00,,---,0.22,VWS V14.01,2013-02-24 01:54:00,
2013-02-23 20:55:00,43.7,42.4,29.87,West,259,0.0,0.0,95,0.00,,---,0.22,VWS V14.01,2013-02-24 01:55:00,
2013-02-23 20:59:00,43.8,42.5,29.87,West,259,0.0,2.0,95,0.00,,---,0.22,VWS V14.01,2013-02-24 01:59:00,
2013-02-23 21:00:00,43.8,42.5,29.87,West,259,0.0,2.0,95,0.00,,---,0.22,VWS V14.01,2013-02-24 02:00:00,
2013-02-23 21:05:00,43.7,42.1,29.87,West,259,0.0,0.0,94,0.00,,---,0.22,VWS V14.01,2013-02-24 02:05:00,
2013-02-23 21:09:00,43.6,42.0,29.86,West,259,0.0,0.0,94,0.00,,---,0.22,VWS V14.01,2013-02-24 02:09:00,
2013-02-23 21:10:00,43.6,42.0,29.86,West,259,0.0,0.0,94,0.00,,---,0.22,VWS V14.01,2013-02-24 02:10:00,
2013-02-23 21:14:00,43.5,41.9,29.87,West,259,0.0,0.0,94,0.00,,---,0.22,VWS V14.01,2013-02-24 02:14:00,
2013-02-23 21:15:00,43.5,41.9,29.87,West,259,0.0,0.0,94,0.00,,---,0.22,VWS V14.01,2013-02-24 02:15:00,
2013-02-23 21:19:00,43.6,42.0,29.86,West,259,0.0,0.0,94,0.00,,---,0.22,VWS V14.01,2013-02-24 02:19:00,
2013-02-23 21:20:00,43.6,42.0,29.86,West,259,0.0,0.0,94,0.00,,---,0.22,VWS V14.01,2013-02-24 02:20:00,
2013-02-23 21:24:00,43.6,42.3,29.85,West,259,1.0,1.0,95,0.00,,---,0.22,VWS V14.01,2013-02-24 02:24:00,
2013-02-23 21:25:00,43.6,42.3,29.85,West,259,1.0,1.0,95,0.00,,---,0.22,VWS V14.01,2013-02-24 02:25:00,
2013-02-23 21:30:00,43.6,42.3,29.86,West,259,0.0,1.0,95,0.00,,---,0.22,VWS V14.01,2013-02-24 02:30:00,
2013-02-23 21:34:00,43.3,41.7,29.87,West,259,2.0,3.0,94,0.00,,---,0.22,VWS V14.01,2013-02-24 02:34:00,
2013-02-23 21:35:00,43.3,41.7,29.87,West,259,2.0,3.0,94,0.00,,---,0.22,VWS V14.01,2013-02-24 02:35:00,
2013-02-23 21:39:00,43.0,41.4,29.86,WSW,257,2.0,3.0,94,0.00,,---,0.22,VWS V14.01,2013-02-24 02:39:00,
2013-02-23 21:40:00,43.0,41.4,29.86,WSW,257,2.0,3.0,94,0.00,,---,0.22,VWS V14.01,2013-02-24 02:40:00,
2013-02-23 21:44:00,43.0,41.7,29.86,WSW,257,0.0,3.0,95,0.00,,---,0.22,VWS V14.01,2013-02-24 02:44:00,
2013-02-23 21:45:00,43.0,41.7,29.86,WSW,257,0.0,3.0,95,0.00,,---,0.22,VWS V14.01,2013-02-24 02:45:00,
2013-02-23 21:49:00,42.9,41.6,29.87,WSW,257,0.0,2.0,95,0.00,,---,0.22,VWS V14.01,2013-02-24 02:49:00,
2013-02-23 21:50:00,42.9,41.6,29.87,WSW,257,0.0,2.0,95,0.00,,---,0.22,VWS V14.01,2013-02-24 02:50:00,
2013-02-23 21:54:00,42.9,41.6,29.88,WSW,257,1.0,1.0,95,0.00,,---,0.22,VWS V14.01,2013-02-24 02:54:00,
2013-02-23 21:55:00,42.9,41.6,29.88,WSW,257,1.0,1.0,95,0.00,,---,0.22,VWS V14.01,2013-02-24 02:55:00,
2013-02-23 21:59:00,43.0,41.7,29.87,WSW,257,0.0,1.0,95,0.00,,---,0.22,VWS V14.01,2013-02-24 02:59:00,
2013-02-23 22:00:00,43.0,41.7,29.87,WSW,257,0.0,1.0,95,0.00,,---,0.22,VWS V14.01,2013-02-24 03:00:00,
2013-02-23 22:04:00,43.1,41.8,29.87,WSW,257,0.0,2.0,95,0.00,,---,0.22,VWS V14.01,2013-02-24 03:04:00,
2013-02-23 22:05:00,43.1,41.8,29.87,WSW,257,0.0,2.0,95,0.00,,---,0.22,VWS V14.01,2013-02-24 03:05:00,
2013-02-23 22:09:00,43.2,41.9,29.86,WSW,257,0.0,1.0,95,0.00,,---,0.22,VWS V14.01,2013-02-24 03:09:00,
2013-02-23 22:10:00,43.2,41.9,29.86,WSW,257,0.0,1.0,95,0.00,,---,0.22,VWS V14.01,2013-02-24 03:10:00,
2013-02-23 22:14:00,43.2,41.9,29.87,WSW,257,0.0,0.0,95,0.00,,---,0.22,VWS V14.01,2013-02-24 03:14:00,
2013-02-23 22:15:00,43.2,41.9,29.87,WSW,257,0.0,0.0,95,0.00,,---,0.22,VWS V14.01,2013-02-24 03:15:00,
2013-02-23 22:20:00,43.2,41.9,29.86,WSW,257,0.0,0.0,95,0.00,,---,0.22,VWS V14.01,2013-02-24 03:20:00,
2013-02-23 22:24:00,43.2,41.9,29.86,WSW,257,0.0,1.0,95,0.00,,---,0.22,VWS V14.01,2013-02-24 03:24:00,
2013-02-23 22:25:00,43.2,41.9,29.86,WSW,257,0.0,1.0,95,0.00,,---,0.22,VWS V14.01,2013-02-24 03:25:00,
2013-02-23 22:29:00,43.2,41.9,29.86,WSW,257,1.0,2.0,95,0.00,,---,0.22,VWS V14.01,2013-02-24 03:29:00,
2013-02-23 22:30:00,43.2,41.9,29.86,WSW,257,1.0,2.0,95,0.00,,---,0.22,VWS V14.01,2013-02-24 03:30:00,
2013-02-23 22:34:00,43.2,41.9,29.87,WSW,257,0.0,1.0,95,0.00,,---,0.22,VWS V14.01,2013-02-24 03:34:00,
2013-02-23 22:35:00,43.2,41.9,29.87,WSW,257,0.0,1.0,95,0.00,,---,0.22,VWS V14.01,2013-02-24 03:35:00,
2013-02-23 22:40:00,43.3,42.0,29.87,WSW,257,0.0,1.0,95,0.00,,---,0.22,VWS V14.01,2013-02-24 03:40:00,
2013-02-23 22:44:00,43.3,42.0,29.86,WSW,257,0.0,1.0,95,0.00,,---,0.22,VWS V14.01,2013-02-24 03:44:00,
2013-02-23 22:45:00,43.3,42.0,29.86,WSW,257,0.0,1.0,95,0.00,,---,0.22,VWS V14.01,2013-02-24 03:45:00,
2013-02-23 22:49:00,43.4,42.1,29.86,WSW,257,0.0,0.0,95,0.00,,---,0.22,VWS V14.01,2013-02-24 03:49:00,
2013-02-23 22:50:00,43.4,42.1,29.86,WSW,257,0.0,0.0,95,0.00,,---,0.22,VWS V14.01,2013-02-24 03:50:00,
2013-02-23 22:55:00,43.4,42.1,29.86,WSW,257,1.0,1.0,95,0.00,,---,0.22,VWS V14.01,2013-02-24 03:55:00,
2013-02-23 22:59:00,43.4,42.1,29.85,WSW,257,0.0,1.0,95,0.00,,---,0.22,VWS V14.01,2013-02-24 03:59:00,
2013-02-23 23:00:00,43.4,42.1,29.85,WSW,257,0.0,1.0,95,0.00,,---,0.22,VWS V14.01,2013-02-24 04:00:00,
2013-02-23 23:04:00,43.5,42.2,29.85,WSW,243,0.0,2.0,95,0.00,,---,0.22,VWS V14.01,2013-02-24 04:04:00,
2013-02-23 23:05:00,43.5,42.2,29.85,WSW,243,0.0,2.0,95,0.00,,---,0.22,VWS V14.01,2013-02-24 04:05:00,
2013-02-23 23:09:00,43.6,42.3,29.85,SSW,205,0.0,4.0,95,0.00,,---,0.22,VWS V14.01,2013-02-24 04:09:00,
2013-02-23 23:10:00,43.6,42.3,29.85,SSW,205,0.0,4.0,95,0.00,,---,0.22,VWS V14.01,2013-02-24 04:10:00,
2013-02-23 23:14:00,43.7,42.1,29.85,SSW,205,0.0,2.0,94,0.00,,---,0.22,VWS V14.01,2013-02-24 04:14:00,
2013-02-23 23:15:00,43.7,42.1,29.85,SSW,205,0.0,2.0,94,0.00,,---,0.22,VWS V14.01,2013-02-24 04:15:00,
2013-02-23 23:20:00,43.8,42.5,29.85,SSW,205,1.0,2.0,95,0.00,,---,0.22,VWS V14.01,2013-02-24 04:20:00,
2013-02-23 23:24:00,43.8,42.2,29.85,SSW,201,0.0,4.0,94,0.00,,---,0.22,VWS V14.01,2013-02-24 04:24:00,
2013-02-23 23:25:00,43.8,42.2,29.85,SSW,201,0.0,4.0,94,0.00,,---,0.22,VWS V14.01,2013-02-24 04:25:00,
2013-02-23 23:29:00,43.8,42.2,29.85,SSW,201,0.0,1.0,94,0.00,,---,0.22,VWS V14.01,2013-02-24 04:29:00,
2013-02-23 23:30:00,43.8,42.2,29.85,SSW,201,0.0,1.0,94,0.00,,---,0.22,VWS V14.01,2013-02-24 04:30:00,
2013-02-23 23:34:00,43.8,42.2,29.85,SSW,201,0.0,2.0,94,0.00,,---,0.22,VWS V14.01,2013-02-24 04:34:00,
2013-02-23 23:35:00,43.8,42.2,29.85,SSW,201,0.0,2.0,94,0.00,,---,0.22,VWS V14.01,2013-02-24 04:35:00,
2013-02-23 23:39:00,43.8,42.2,29.85,SSW,201,0.0,1.0,94,0.00,,---,0.22,VWS V14.01,2013-02-24 04:39:00,
2013-02-23 23:40:00,43.8,42.2,29.85,SSW,201,0.0,1.0,94,0.00,,---,0.22,VWS V14.01,2013-02-24 04:40:00,
2013-02-23 23:44:00,43.9,42.3,29.85,SSW,201,0.0,1.0,94,0.00,,---,0.22,VWS V14.01,2013-02-24 04:44:00,
2013-02-23 23:45:00,43.9,42.3,29.85,SSW,201,0.0,1.0,94,0.00,,---,0.22,VWS V14.01,2013-02-24 04:45:00,
2013-02-23 23:49:00,43.9,42.3,29.85,SSW,201,0.0,1.0,94,0.00,,---,0.22,VWS V14.01,2013-02-24 04:49:00,
2013-02-23 23:50:00,43.9,42.3,29.85,SSW,201,0.0,1.0,94,0.00,,---,0.22,VWS V14.01,2013-02-24 04:50:00,
2013-02-23 23:55:00,43.9,42.3,29.85,SSW,201,0.0,0.0,94,0.00,,---,0.22,VWS V14.01,2013-02-24 04:55:00,
2013-02-23 23:59:00,43.8,42.2,29.85,SSW,201,0.0,0.0,94,0.00,,---,0.22,VWS V14.01,2013-02-24 04:59:00,